Location: Buenos Aires
(34.6076°S, 58.4371°W)
Time: 12:48:05
(UTC-03:00)

N. Korean satellite - Visible Passes

Search period start: 30 November 2021 00:00
Search period end: 10 December 2021 00:00
Orbit: 447 x 495 km, 97.3° (Epoch: 30 November)

Date Brightness Start Highest point End Pass type
(mag) Time Alt. Az. Time Alt. Az. Time Alt. Az.
02 Dec 9.4 04:45:04 10° ENE 04:47:49 22° ESE 04:50:36 10° SSE visible
05 Dec 9.0 04:52:23 10° NE 04:55:25 28° ESE 04:58:31 10° SSE visible
06 Dec 10.0 04:25:39 10° E 04:27:08 12° ESE 04:28:38 10° SE visible
08 Dec 8.4 04:59:41 10° NE 05:02:56 35° ESE 05:06:16 10° S visible
09 Dec 9.8 04:32:26 10° ENE 04:34:36 15° ESE 04:36:48 10° SSE visible
